Weather History for Tacoma Narrows, WA

Change the Weather History Date:

Wednesday, October 5, 2011

  Actual Average Record
Temperature  
Mean Temperature 52 °F -  
Max Temperature 55 °F 60 °F 73 °F (2001)
Min Temperature 48 °F 48 °F 42 °F (2010)
Degree Days  
Heating Degree Days 13    
Growing Degree Days 2 (Base 50)    
Moisture  
Dew Point 48 °F    
Average Humidity 89    
Maximum Humidity 100    
Minimum Humidity 77    
Precipitation  
Precipitation 0.09 in - - ()
Sea Level Pressure  
Sea Level Pressure 29.55 in    
Wind  
Wind Speed 3 mph (SSW)    
Max Wind Speed 7 mph    
Max Gust Speed -    
Visibility 10 miles    
Events Rain    
Averages and records for this station are not official NWS values.
T = Trace of Precipitation, MM = Missing Value Source: NWS Daily Summary

Daily Weather History Graph

Daily Weather History Graph

Search for Another Location

Airport:

Trip Planner

Search our weather history database for the weather conditions in past years. The results will help you decide how hot, cold, wet, or windy it might be!

Date:

Astronomy

Oct. 05, 2011 Rise Set
Actual Time 7:14 AM PDT 6:42 PM PDT
Civil Twilight 6:43 AM PDT 7:12 PM PDT
Nautical Twilight 6:08 AM PDT 7:48 PM PDT
Astronomical Twilight 5:32 AM PDT 8:23 PM PDT
Moon 3:46 PM PDT (10/5) 12:42 AM PDT (10/5)
Length of Visible Light 12h 28m
Length of Day
11h 27m
Waxing Gibbous, 67% of the Moon is Illuminated
Oct 5
Waxing Gibbous
Oct 11
Full
Oct 19
Last Quarter
Oct 26
New
Nov 2
First Quarter

Hourly Weather History & Observations

Time (PDT) Temp. Dew Point Humidity Pressure Visibility Wind Dir Wind Speed Gust Speed Precip Events Conditions
12:53 AM 50.0 °F 48.2 °F 94% 29.42 in 10.0 mi North 5.8 mph - N/A Rain Light Rain
1:53 AM 51.1 °F 50.0 °F 96% 29.43 in 10.0 mi Calm Calm - 0.01 in   Overcast
2:53 AM 50.0 °F 50.0 °F 100% 29.45 in 9.0 mi Calm Calm - 0.02 in   Overcast
3:53 AM 51.1 °F 50.0 °F 96% 29.45 in 10.0 mi Calm Calm - 0.01 in   Overcast
4:07 AM 51.8 °F 50.0 °F 94% 29.45 in 10.0 mi Calm Calm - 0.00 in Rain Light Rain
4:44 AM 51.8 °F 50.0 °F 94% 29.45 in 10.0 mi Calm Calm - 0.00 in   Overcast
4:53 AM 51.8 °F 50.0 °F 94% 29.46 in 10.0 mi Calm Calm - N/A   Overcast
5:53 AM 51.1 °F 48.9 °F 92% 29.46 in 10.0 mi SSW 6.9 mph - N/A   Overcast
6:53 AM 50.0 °F 48.0 °F 93% 29.47 in 10.0 mi SSW 6.9 mph - N/A   Clear
7:53 AM 50.0 °F 46.9 °F 89% 29.49 in 10.0 mi Calm Calm - N/A   Mostly Cloudy
8:53 AM 50.0 °F 46.9 °F 89% 29.51 in 10.0 mi SSW 3.5 mph - 0.00 in   Scattered Clouds
9:53 AM 51.1 °F 48.0 °F 89% 29.52 in 10.0 mi South 6.9 mph - N/A   Mostly Cloudy
10:53 AM 52.0 °F 46.9 °F 83% 29.53 in 10.0 mi SSW 5.8 mph - N/A   Overcast
10:57 AM 51.8 °F 46.4 °F 82% 29.52 in 10.0 mi SSW 4.6 mph - N/A   Mostly Cloudy
11:53 AM 53.6 °F 46.4 °F 77% 29.54 in 10.0 mi South 6.9 mph - N/A   Mostly Cloudy
12:53 PM 54.0 °F 48.0 °F 80% 29.56 in 10.0 mi SSW 5.8 mph - N/A   Overcast
1:53 PM 54.0 °F 46.9 °F 77% 29.56 in 10.0 mi SSW 5.8 mph - N/A   Scattered Clouds
2:53 PM 54.0 °F 46.9 °F 77% 29.58 in 10.0 mi South 3.5 mph - N/A   Scattered Clouds
5:53 PM 52.0 °F 46.9 °F 83% 29.64 in 10.0 mi SW 4.6 mph - N/A   Overcast
6:53 PM 50.0 °F 46.9 °F 89% 29.66 in 10.0 mi Calm Calm - 0.02 in Rain Light Rain
7:53 PM 50.0 °F 46.9 °F 89% 29.69 in 10.0 mi Calm Calm - 0.00 in Rain Light Rain
8:53 PM 50.0 °F 48.0 °F 93% 29.71 in 10.0 mi South 6.9 mph - 0.02 in Rain Light Rain
9:53 PM 50.0 °F 48.2 °F 94% 29.73 in 10.0 mi SSW 4.6 mph - N/A Rain Light Rain
10:53 PM 50.0 °F 48.0 °F 93% 29.75 in 10.0 mi SSW 3.5 mph - 0.01 in Rain Light Rain
11:53 PM 48.9 °F 48.0 °F 97% 29.77 in 10.0 mi SSE 4.6 mph - 0.00 in   Overcast